Wind_Speed
25 5 14 20 19 0 8 16 9 7 6 7 12 11 12 15 16 18 19 19 16 14 15 19 22 22 24 24 25 26 26 28 28 25 32 33 37 35 36 35 35 34 32 30
11 14 14 14 14 7 12 13 10 5 5 6 5 8 12 15 16 12 13 14 11 7 5 10 16 20 23 25 27 28 29 27 29 29 29 36 34 39 39 37 35 36 37 34
16 6 14 16 14 12 9 12 10 4 6 1 4 7 6 3 4 5 6 6 5 5 5 7 6 1 6 13 20 27 30 30 30 32 27 25 27 30 33 38 38 36 35 37
3 6 18 18 18 14 11 4 8 8 7 3 2 3 4 7 9 9 11 10 9 8 8 8 8 9 6 4 4 9 17 25 31 32 32 27 27 30 37 39 40 40 39 39
4 7 14 17 18 14 4 7 6 5 3 1 4 4 6 9 10 9 9 8 8 9 8 9 10 10 9 8 7 3 5 9 16 27 31 27 25 24 25 26 32 37 40 41
5 5 5 3 8 6 11 10 7 4 1 4 4 4 8 9 11 9 5 7 6 7 8 9 8 8 8 8 7 6 5 5 8 13 21 29 28 24 21 25 27 30 31 32
2 4 2 10 7 5 3 9 4 3 3 2 1 4 3 8 6 9 6 5 6 7 7 10 10 9 9 9 9 9 8 7 7 7 10 16 23 25 23 22 22 24 27 34
3 4 2 2 1 6 7 4 2 3 4 3 3 5 3 7 9 11 2 4 4 6 8 9 10 11 12 12 11 12 13 13 12 11 10 11 12 16 19 21 23 23 23 27
4 4 4 2 2 3 3 4 2 4 2 2 4 3 4 4 9 8 3 3 4 6 10 10 11 12 12 12 12 12 12 14 14 14 14 14 14 15 16 18 19 21 22 23
3 6 2 5 3 10 2 8 3 0 4 4 4 3 4 11 14 6 2 5 3 5 7 9 11 10 11 12 12 11 10 10 11 12 12 13 15 17 19 20 21 22 24 26
6 3 3 3 2 6 4 3 2 1 2 2 2 3 8 15 13 5 4 4 3 5 7 9 8 9 9 9 6 5 5 6 8 11 13 14 14 15 15 15 17 20 24 26
2 5 5 2 2 3 1 2 3 2 3 1 3 3 5 9 10 2 6 2 3 4 6 6 7 7 7 8 7 8 8 8 8 9 11 14 16 17 16 17 18 19 18 22
5 3 5 4 2 1 4 4 2 4 2 4 2 4 4 5 7 5 6 1 3 5 5 5 6 6 7 7 8 8 9 9 10 11 12 12 12 14 15 15 15 16 17 18
3 3 1 0 3 3 4 8 9 4 3 4 5 2 7 7 4 8 4 2 2 4 4 5 5 5 6 7 8 8 8 9 10 12 11 11 12 12 13 14 13 13 13 12
1 3 0 1 1 2 3 6 12 8 5 5 1 5 4 6 7 7 2 1 3 3 2 4 4 4 4 4 7 9 9 11 13 13 12 10 10 10 9 9 7 7 7 6
2 3 1 0 0 5 5 9 9 13 13 12 13 18 15 7 3 3 4 3 3 2 1 2 2 2 4 5 8 9 10 11 11 12 13 12 10 9 7 5 5 5 5 3
3 5 1 1 2 3 8 15 17 10 9 12 10 8 5 4 5 4 5 4 2 2 1 1 1 2 3 5 7 8 9 9 9 10 10 10 9 8 7 7 6 6 7 9
6 5 1 1 1 4 2 2 4 16 9 15 11 13 11 7 4 2 3 2 1 2 3 2 1 1 3 5 6 7 7 7 7 7 8 8 8 8 9 10 12 14 14 13
1 4 2 2 3 6 2 3 5 6 0 13 17 15 9 4 4 4 4 2 2 2 3 2 2 0 2 3 5 6 6 7 8 9 11 12 12 15 15 16 15 14 13 12
4 2 3 1 3 3 4 3 3 4 4 5 9 6 3 6 3 3 5 2 1 1 3 3 2 1 1 3 4 4 7 10 11 12 14 14 14 14 14 14 14 13 12 12
3 2 7 5 4 5 4 4 1 3 4 1 3 5 5 4 1 5 3 3 3 2 2 3 4 3 2 3 5 8 12 14 14 15 16 17 16 16 15 14 13 12 11 11
8 5 3 5 5 6 3 4 3 1 2 3 6 5 6 7 7 7 5 4 3 2 3 6 6 6 5 6 8 11 15 17 16 16 16 15 15 14 13 12 12 11 9 8
5 5 3 7 3 1 2 2 5 8 11 12 8 5 4 9 12 11 10 7 5 4 6 9 9 9 9 12 12 16 18 16 14 13 13 13 12 12 12 10 9 8 7 6
6 9 3 3 4 11 13 10 3 10 9 5 5 7 6 8 12 13 12 9 7 7 9 11 12 13 15 15 14 13 15 14 12 12 12 11 9 9 8 7 6 5 4 3
1 8 8 9 9 9 13 6 7 9 9 8 8 7 7 8 11 15 14 12 10 10 13 15 15 17 17 15 13 14 13 13 11 10 9 8 7 7 6 4 4 3 2 3
8 7 6 6 6 5 4 3 4 13 17 11 9 8 7 8 12 16 16 14 13 14 15 18 18 17 16 15 15 14 13 12 10 9 8 7 6 5 3 3 3 4 5 6
Wind_Direction
189 194 187 185 194 62 181 196 189 209 140 207 229 241 247 255 261 259 264 268 269 268 270 271 267 262 259 255 253 249 245 247 246 237 246 247 249 249 250 249 249 250 252 248
169 209 206 183 180 164 183 189 184 107 165 230 209 250 251 253 264 277 275 275 278 279 291 282 269 261 257 255 251 250 250 247 242 239 242 246 247 247 249 250 249 249 248 247
181 208 193 186 179 183 191 198 172 153 149 111 276 247 204 126 98 108 94 99 78 60 46 39 35 318 257 259 255 247 241 237 236 238 238 238 239 244 247 247 249 249 248 249
152 299 188 186 188 183 180 170 152 139 184 210 275 179 118 131 114 110 103 87 66 54 51 49 51 58 57 24 291 256 249 245 240 238 240 237 237 243 249 252 254 250 250 247
184 227 173 186 187 192 115 155 124 117 140 251 189 243 114 152 138 126 94 75 59 43 39 37 44 50 43 35 29 2 267 252 248 245 242 236 238 242 250 252 256 259 259 257
33 12 29 101 77 76 134 109 85 91 104 231 159 250 165 178 165 142 104 63 58 36 32 25 24 28 24 17 2 354 338 299 269 258 249 242 244 248 248 252 254 258 260 261
30 46 34 111 79 90 80 167 139 175 189 251 148 217 61 144 166 147 89 55 35 24 24 12 5 358 349 340 334 324 315 301 292 277 259 246 244 245 247 251 255 260 262 262
90 109 59 230 133 173 177 239 263 190 180 139 159 225 131 142 142 153 72 13 24 32 16 7 358 344 333 325 319 314 308 301 285 276 275 267 257 254 256 259 263 264 264 267
121 83 96 127 120 160 172 216 20 95 61 230 178 215 219 179 194 203 311 356 23 17 1 356 348 339 329 324 315 305 303 294 290 281 277 272 270 266 264 262 265 268 271 271
124 112 43 157 149 55 249 134 168 240 184 224 181 237 144 150 157 178 359 3 16 0 355 349 347 341 332 330 320 306 301 290 288 289 290 290 284 278 273 269 266 265 265 263
136 98 150 193 210 177 151 190 78 103 312 274 192 131 135 150 148 119 14 360 348 348 357 357 2 353 350 343 341 339 326 304 286 288 289 292 295 294 289 285 277 275 273 268
79 106 151 150 35 306 290 209 208 255 170 31 333 104 164 163 169 86 355 338 346 4 358 13 3 7 15 21 25 21 10 0 348 333 317 303 292 289 292 287 285 287 288 278
163 108 125 161 196 190 219 195 156 103 68 198 234 118 147 184 215 285 327 355 3 360 11 18 12 10 19 17 16 9 3 357 347 336 320 311 308 297 289 291 298 299 292 282
101 110 297 239 86 117 191 194 194 167 181 175 230 352 176 184 267 323 328 312 342 360 20 7 5 6 14 8 8 8 8 11 10 2 348 340 338 330 321 305 301 300 290 272
49 107 71 38 67 190 217 198 194 205 194 210 56 229 245 299 312 320 286 261 318 339 13 10 2 360 355 4 18 18 18 18 20 7 355 356 350 334 338 322 312 305 301 285
27 108 82 19 42 250 265 243 221 223 235 252 261 279 280 287 298 302 260 237 266 302 325 333 345 337 345 11 25 21 18 12 10 10 4 3 3 16 17 357 341 25 6 346
131 138 165 231 354 282 265 232 212 206 209 221 220 234 226 290 308 298 229 222 259 229 257 292 305 2 8 18 34 29 23 18 12 7 2 17 19 33 46 48 54 76 94 107
155 119 139 299 251 235 77 120 216 214 229 222 249 251 260 291 292 223 204 216 238 216 220 220 142 44 25 33 38 27 24 20 21 29 42 52 55 63 76 81 86 87 94 109
212 144 141 259 244 305 203 159 167 181 173 225 234 257 268 242 189 203 201 246 213 188 201 208 210 153 39 26 27 32 41 51 65 75 84 87 88 91 95 97 97 101 109 114
93 76 224 151 268 252 69 111 216 204 168 175 206 250 213 173 235 111 188 209 194 177 195 212 190 161 58 30 50 73 85 94 101 102 98 98 96 96 97 96 100 103 103 100
162 161 219 218 265 280 248 224 319 227 93 116 233 246 216 218 278 161 183 184 168 170 186 171 169 165 125 99 99 115 111 112 109 109 108 104 102 100 98 100 97 93 93 96
189 192 200 204 228 257 158 125 196 359 324 309 307 279 241 219 210 193 191 190 161 156 155 150 158 154 142 118 124 128 123 114 112 113 111 109 107 105 101 100 100 99 94 84
209 211 189 214 229 323 228 237 305 309 294 299 280 283 259 215 205 199 192 185 168 152 159 156 159 155 142 129 132 132 124 122 121 119 113 108 109 108 108 107 100 92 80 65
218 196 239 207 225 243 249 266 275 304 310 300 276 282 272 231 214 201 196 186 174 148 156 160 164 154 145 139 138 138 129 129 132 130 125 121 118 111 106 97 86 74 51 25
223 165 219 246 263 270 263 251 212 307 324 310 293 288 278 243 221 211 200 192 180 164 158 157 157 154 151 147 146 145 143 140 141 140 133 128 124 118 111 100 79 57 24 1
195 210 212 249 221 226 157 150 248 287 300 295 283 286 278 255 227 213 206 200 194 181 173 167 164 168 165 165 169 166 156 151 153 153 149 143 138 132 110 71 31 15 0 352
Height
1476 1478 1475 1475 1478 1480 1481 1490 1492 1491 1497 1498 1496 1497 1497 1499 1500 1499 1498 1498 1499 1501 1501 1499 1499 1500 1500 1501 1502 1503 1505 1507 1510 1512 1510 1511 1512 1515 1516 1518 1519 1521 1522 1522
1476 1476 1477 1476 1480 1484 1484 1487 1490 1497 1498 1498 1497 1497 1494 1494 1494 1496 1496 1495 1496 1497 1496 1494 1492 1492 1493 1494 1495 1497 1498 1500 1502 1504 1504 1505 1507 1507 1509 1510 1512 1514 1515 1516
1467 1472 1473 1478 1480 1483 1486 1487 1490 1490 1498 1501 1500 1490 1491 1496 1497 1497 1496 1496 1496 1494 1493 1492 1490 1488 1488 1488 1488 1488 1490 1492 1494 1496 1498 1500 1500 1500 1501 1502 1504 1506 1507 1508
1476 1475 1472 1475 1478 1480 1488 1491 1490 1493 1494 1489 1499 1479 1490 1494 1496 1496 1496 1496 1496 1495 1494 1491 1490 1487 1486 1485 1484 1484 1484 1486 1487 1489 1490 1492 1492 1492 1494 1496 1497 1498 1499 1499
1482 1478 1474 1478 1477 1481 1490 1492 1492 1495 1494 1496 1496 1491 1488 1492 1494 1496 1496 1496 1495 1494 1493 1491 1489 1487 1486 1485 1484 1482 1482 1481 1481 1482 1483 1485 1486 1487 1488 1490 1490 1490 1491 1492
1481 1478 1479 1482 1487 1490 1492 1492 1497 1498 1498 1496 1491 1494 1485 1488 1488 1493 1495 1495 1495 1494 1492 1490 1488 1487 1486 1484 1483 1481 1480 1479 1478 1477 1477 1478 1480 1482 1483 1483 1484 1484 1483 1483
1486 1485 1485 1484 1491 1495 1494 1490 1497 1498 1497 1486 1503 1499 1476 1485 1489 1490 1494 1495 1494 1493 1491 1489 1487 1485 1483 1481 1480 1479 1478 1477 1476 1474 1474 1474 1475 1475 1476 1477 1478 1478 1477 1477
1475 1484 1489 1489 1485 1487 1491 1485 1482 1480 1480 1482 1506 1489 1476 1486 1489 1492 1493 1493 1493 1491 1489 1487 1485 1483 1481 1479 1478 1476 1475 1474 1473 1472 1471 1471 1471 1471 1471 1471 1472 1471 1471 1471
1475 1487 1488 1489 1488 1487 1492 1491 1495 1496 1506 1493 1479 1485 1486 1488 1490 1491 1490 1491 1491 1489 1487 1485 1483 1480 1478 1476 1474 1473 1472 1470 1469 1468 1468 1468 1467 1467 1467 1467 1467 1466 1466 1465
1476 1486 1489 1492 1491 1493 1489 1493 1495 1497 1490 1479 1477 1478 1467 1481 1485 1487 1488 1489 1489 1488 1487 1484 1480 1477 1475 1474 1471 1469 1468 1466 1465 1465 1464 1464 1463 1462 1462 1461 1461 1460 1459 1458
1473 1475 1493 1489 1488 1487 1494 1492 1494 1488 1490 1476 1466 1464 1465 1474 1480 1485 1486 1486 1487 1486 1483 1480 1478 1476 1473 1471 1469 1467 1465 1464 1463 1462 1461 1460 1459 1457 1457 1456 1456 1455 1453 1452
1475 1478 1486 1487 1491 1490 1488 1486 1485 1480 1490 1498 1491 1468 1474 1475 1479 1483 1484 1485 1484 1482 1481 1478 1476 1474 1473 1471 1468 1466 1465 1463 1462 1460 1458 1457 1455 1454 1453 1451 1450 1449 1447 1446
1472 1480 1488 1492 1494 1492 1489 1489 1490 1492 1494 1497 1478 1467 1476 1479 1481 1481 1481 1481 1481 1480 1478 1476 1475 1473 1471 1469 1467 1466 1463 1462 1460 1459 1456 1453 1451 1448 1447 1446 1445 1443 1443 1441
1472 1478 1476 1471 1478 1482 1490 1487 1489 1491 1492 1484 1480 1472 1472 1476 1477 1477 1477 1478 1479 1477 1474 1473 1472 1471 1470 1468 1466 1465 1463 1461 1458 1455 1453 1450 1448 1446 1445 1443 1442 1441 1439 1439
1473 1478 1483 1483 1483 1484 1483 1484 1488 1492 1485 1484 1476 1478 1470 1472 1473 1474 1476 1476 1475 1475 1473 1472 1472 1471 1471 1469 1466 1464 1462 1459 1456 1454 1451 1449 1447 1446 1444 1443 1441 1439 1438 1437
1477 1485 1490 1488 1486 1485 1486 1481 1481 1484 1483 1482 1480 1476 1470 1470 1472 1473 1474 1474 1474 1473 1472 1470 1470 1470 1469 1466 1463 1462 1461 1458 1456 1454 1452 1449 1448 1446 1445 1443 1442 1441 1439 1440
1476 1484 1485 1477 1486 1484 1480 1472 1474 1476 1477 1476 1480 1470 1469 1469 1471 1471 1472 1472 1471 1470 1469 1469 1469 1468 1466 1464 1462 1462 1460 1458 1456 1454 1452 1450 1449 1449 1447 1445 1444 1443 1441 1443
1476 1480 1484 1479 1482 1474 1463 1466 1466 1468 1468 1471 1468 1467 1468 1468 1469 1469 1469 1469 1468 1467 1467 1468 1468 1466 1465 1463 1461 1461 1460 1457 1456 1455 1454 1453 1452 1451 1450 1449 1449 1448 1449 1452
1476 1478 1483 1480 1474 1464 1458 1464 1465 1464 1460 1462 1464 1463 1465 1467 1467 1467 1466 1466 1466 1465 1465 1465 1465 1464 1464 1462 1461 1461 1459 1457 1457 1457 1456 1455 1454 1454 1454 1453 1454 1453 1454 1456
1478 1478 1478 1486 1482 1462 1457 1459 1461 1462 1458 1460 1462 1461 1461 1463 1459 1461 1464 1463 1463 1463 1463 1463 1463 1463 1462 1461 1461 1461 1460 1459 1459 1459 1458 1458 1458 1458 1458 1458 1459 1459 1459 1460
1479 1481 1479 1477 1474 1461 1458 1460 1462 1463 1461 1459 1459 1459 1460 1460 1459 1460 1461 1461 1461 1461 1461 1461 1461 1461 1461 1461 1462 1462 1461 1461 1462 1462 1462 1462 1462 1462 1463 1463 1464 1463 1463 1464
1471 1475 1478 1479 1477 1470 1459 1460 1461 1459 1457 1458 1457 1457 1457 1457 1457 1459 1460 1460 1460 1460 1459 1460 1461 1462 1462 1462 1463 1464 1463 1464 1465 1465 1465 1465 1466 1466 1466 1467 1467 1467 1467 1467
1467 1463 1463 1465 1458 1457 1458 1458 1458 1458 1457 1456 1456 1455 1455 1455 1456 1457 1458 1459 1458 1458 1458 1459 1461 1462 1462 1463 1464 1466 1466 1468 1468 1468 1468 1469 1469 1469 1470 1470 1470 1470 1469 1468
1461 1463 1461 1461 1452 1455 1457 1456 1457 1457 1456 1455 1454 1454 1454 1454 1454 1455 1457 1457 1457 1456 1457 1459 1461 1461 1463 1464 1465 1467 1468 1469 1471 1471 1471 1472 1472 1472 1472 1472 1472 1471 1470 1470
1456 1459 1455 1455 1454 1453 1452 1453 1453 1455 1454 1453 1453 1452 1452 1451 1452 1453 1455 1456 1456 1457 1457 1458 1460 1462 1463 1464 1466 1468 1469 1470 1472 1473 1473 1473 1473 1474 1474 1473 1473 1472 1471 1470
1452 1450 1450 1446 1448 1448 1449 1450 1452 1453 1451 1451 1450 1449 1449 1449 1449 1451 1452 1454 1455 1456 1457 1458 1460 1462 1464 1466 1467 1468 1469 1471 1472 1473 1474 1474 1474 1474 1474 1474 1473 1471 1470 1469